STARLINK-35286, 65803

Orbit data source: Space-Track

STARLINK-35286, 65803 is a payload satellite owned by SpaceX/Seattle (US) in SSO that was launched on Fri, 26 Sep 2025 UTC via an FALCON 9 launch vehicle from the Air Force Western Test Range (AFWTR). Payload-class satellites include a variety of spacecraft equipped with specific instruments for various scientific and technological missions. These include communications satellites like Starlink; space stations such as the ISS; scientific satellites like the Hubble; Earth observation satellites from companies like Planet Labs, Umbra, and HawkEye 360; GPS; miniature CubeSats for education and research; and military/defense satellites.

Loading next visibility...
Identifier
65803, 2025-218N
Orbit
SSO
Country
Flag of USUS
Related business
Manufacturer
SpaceX/Seattle
Mission
Operational Commercial Communications
Bus & Motor
STARLINK V2MO, Unknown motor
Mass
575 kg wet, ~530 kg dry
Launch date (UTC)
2025-09-26 (2 months ago)
Launch vehicle
FALCON 9
Launch site
Air Force Western Test Range (AFWTR)
Object type
Payload
Rocket body
Debris
Shape & HBR
Box + 2 Pan, 17.7 m
Radar Cross Section
36.964 m²

Expand to show TLE details & history
Last TLE update: 15 hours ago

TLE from 15 hours ago
0 STARLINK-35286
1 65803U 25218N   25340.63076336  .00010345  00000-0  71999-3 0  9999
2 65803  97.6016 201.1724 0002199  78.0803 282.0670 15.05654653 10968
Epoch: 2025-12-06T15:08Z
TLE epoch observation values (Epoch: 2025-12-06T15:08:17.954Z)
Latitude
-0.00004°
Longitude
-101.55814°
Altitude
552.244 km
Speed
7.586 km/s
True Right ascension
13h 24m 41s
True Declination
0° 00' 00"
Sunlit
Object was in daylight at epoch
Visualization orbit readout
Latitude
Unknown
Longitude
Unknown
Altitude
Unknown
Speed
Unknown
Apparent Right ascension
Unknown
Apparent Declination
Unknown
Sunlit
N/A
Visualization observer readout
Local Sidereal Time
04:06:52
Azimuth
Unknown
Elevation
Unknown
Doppler factor
Unknown
Orbital elements
Apogee altitude
548.013 km
Perigee altitude
544.968 km
Semi-major axis
6,924.627 km
Eccentricity
0.00022
Inclination
97.6016°
RAAN
201.1724°
Arg. of periapsis
78.0803°
True anomaly
282.04236°
Mean anomaly
282.067°
Eccentric anomaly
282.05468°
Mean motion
3.76659 °/min
Orbital period
95.58 mins
BSTAR
0.00071999
Loading maneuver chart data...
Computing Atmospheric mass density...
Loading historical data...
Loading historical data...
Loading historical data...
Loading historical data...
Loading historical data...
Loading historical data...
Loading historical data...

Documentation

Showing up to 5 results
|